Back to catalog

STARLINK-32030

AliveCommunicationsVLEO
NORAD 61513·PAYLOAD·🇺🇸 United States

Launched Oct 15, 2024 from Cape Canaveral Space Force Station

Loading…

Next Passes (next 24 hours)

TLE

FreshSource: CelesTrak SupGP

Epoch: Sep 14, 2026, 20:59 UTC

1 61513C 24183E   26257.87479167 -.00010871  00000+0 -32124-3 0  2575
2 61513  53.1584 341.7393 0001101  81.1949 340.4622 15.34389565    10

Track STARLINK-32030 in real time with AllMySat

Download on the App Store